Glasgow, United Kingdom

4:59 PM BST on June 27, 2017 (GMT +0100)
Glasgow

Weather History for EGPF - September, 2011

Change the Weather History Date:

Wednesday, September 21, 2011

  Actual Average Record
Temperature  
Mean Temperature 52 °F -  
Max Temperature 57 °F 55 °F 75 °F (1998)
Min Temperature 48 °F 43 °F 35 °F (2014)
Degree Days  
Heating Degree Days 12    
Growing Degree Days 2 (Base 50)    
Moisture  
Dew Point 47 °F    
Average Humidity 82    
Maximum Humidity 94    
Minimum Humidity 67    
Precipitation  
Precipitation 0.00 in - - ()
Sea Level Pressure  
Sea Level Pressure 29.67 in    
Wind  
Wind Speed 16 mph ()    
Max Wind Speed 25 mph    
Max Gust Speed 43 mph    
Visibility 5.5 miles    
Events Rain    
Averages and records for this station are not official NWS values.
T = Trace of Precipitation, MM = Missing Value Source: Averaged Metar Reports

Daily Weather History Graph

Daily Weather History Graph

Search for Another Location

Airport or City:

Trip Planner

Search our weather history database for the weather conditions in past years. The results will help you decide how hot, cold, wet, or windy it might be!

Date:

Astronomy

Sep. 21, 2011 Rise Set
Actual Time 7:00 AM BST 7:20 PM BST
Civil Twilight 6:23 AM BST 7:57 PM BST
Nautical Twilight 5:38 AM BST 8:41 PM BST
Astronomical Twilight 4:51 AM BST 9:28 PM BST
Moon No Moon Rise 4:21 PM BST (9/21)
Length of Visible Light 13h 34m
Length of Day
12h 20m
Last Quarter, 41% of the Moon is Illuminated
Sep 21
Last Quarter
Sep 27
New
Oct 4
First Quarter
Oct 12
Full
Oct 20
Last Quarter

Hourly Weather History & Observations

Time (BST) Temp. Dew Point Humidity Pressure Visibility Wind Dir Wind Speed Gust Speed Precip Events Conditions
12:20 AM 51.8 °F 46.4 °F 82% 29.80 in 6.2 mi WSW 13.8 mph - N/A   Partly Cloudy
12:50 AM 51.8 °F 46.4 °F 82% 29.80 in - SW 16.1 mph - N/A   Clear
1:20 AM 53.6 °F 48.2 °F 82% 29.80 in - SW 17.3 mph - N/A   Clear
1:50 AM 53.6 °F 48.2 °F 82% 29.80 in 6.2 mi SW 13.8 mph - N/A   Partly Cloudy
2:20 AM 53.6 °F 48.2 °F 82% 29.77 in 6.2 mi SW 18.4 mph - N/A   Scattered Clouds
2:50 AM 53.6 °F 48.2 °F 82% 29.77 in 6.2 mi SW 16.1 mph - N/A   Partly Cloudy
3:20 AM 53.6 °F 48.2 °F 82% 29.77 in 6.2 mi SW 18.4 mph - N/A   Partly Cloudy
3:50 AM 53.6 °F 48.2 °F 82% 29.74 in 6.2 mi SSW 19.6 mph - N/A   Partly Cloudy
4:20 AM 53.6 °F 48.2 °F 82% 29.74 in 6.2 mi SW 17.3 mph - N/A   Mostly Cloudy
4:50 AM 51.8 °F 48.2 °F 88% 29.74 in 6.2 mi SW 17.3 mph - N/A   Mostly Cloudy
5:20 AM 53.6 °F 48.2 °F 82% 29.74 in 6.2 mi SSW 17.3 mph - N/A   Mostly Cloudy
5:50 AM 53.6 °F 48.2 °F 82% 29.71 in 6.2 mi SSW 18.4 mph - N/A   Mostly Cloudy
6:20 AM 53.6 °F 48.2 °F 82% 29.71 in 6.2 mi SSW 18.4 mph - N/A   Mostly Cloudy
6:50 AM 53.6 °F 48.2 °F 82% 29.68 in 6.2 mi SSW 18.4 mph - N/A Rain Light Rain
7:20 AM 51.8 °F 48.2 °F 88% 29.68 in 5.6 mi SSW 17.3 mph - N/A Rain Light Rain
7:50 AM 51.8 °F 48.2 °F 88% 29.68 in 4.3 mi SSW 19.6 mph - N/A Rain Light Rain
8:20 AM 51.8 °F 48.2 °F 88% 29.65 in 4.3 mi SSW 17.3 mph - N/A Rain Light Rain
8:50 AM 51.8 °F 48.2 °F 88% 29.65 in 4.3 mi SSW 18.4 mph - N/A Rain Light Rain
9:20 AM 51.8 °F 48.2 °F 88% 29.62 in 3.7 mi South 16.1 mph - N/A Rain Rain
9:50 AM 51.8 °F 50.0 °F 94% 29.59 in 3.7 mi SSW 20.7 mph - N/A Rain Rain
10:20 AM 51.8 °F 50.0 °F 94% 29.59 in 3.7 mi SSW 21.9 mph - N/A Rain Rain
10:50 AM 51.8 °F 50.0 °F 94% 29.56 in 3.7 mi SSW 25.3 mph 36.8 mph N/A Rain Rain
11:20 AM 51.8 °F 50.0 °F 94% 29.53 in 3.7 mi SSW 20.7 mph 32.2 mph N/A Rain Rain
11:50 AM 53.6 °F 50.0 °F 88% 29.53 in 2.5 mi SSW 25.3 mph - N/A Rain Rain
12:20 PM 50.0 °F 46.4 °F 87% 29.56 in 3.7 mi WSW 25.3 mph 42.6 mph N/A Rain Rain
12:50 PM 50.0 °F 46.4 °F 87% 29.56 in 6.2 mi SW 10.4 mph - N/A Rain Light Rain
1:20 PM 50.0 °F 46.4 °F 87% 29.56 in 6.2 mi WSW 13.8 mph - N/A   Scattered Clouds
1:50 PM 48.2 °F 44.6 °F 87% 29.59 in 4.3 mi West 23.0 mph 38.0 mph N/A Rain Rain
2:20 PM 51.8 °F 46.4 °F 82% 29.59 in 6.2 mi WSW 18.4 mph - N/A   Scattered Clouds
2:50 PM 53.6 °F 48.2 °F 82% 29.59 in 6.2 mi SW 15.0 mph - N/A Rain Light Rain
3:20 PM 55.4 °F 44.6 °F 67% 29.59 in 6.2 mi WSW 20.7 mph 33.4 mph N/A   Scattered Clouds
3:50 PM 55.4 °F 46.4 °F 72% 29.59 in 6.2 mi WSW 23.0 mph 35.7 mph N/A   Mostly Cloudy
4:20 PM 57.2 °F 46.4 °F 67% 29.62 in 6.2 mi WSW 21.9 mph - N/A   Scattered Clouds
4:50 PM 55.4 °F 44.6 °F 67% 29.62 in 6.2 mi WSW 18.4 mph - N/A   Scattered Clouds
5:20 PM 55.4 °F 44.6 °F 67% 29.62 in 6.2 mi WSW 17.3 mph 28.8 mph N/A   Scattered Clouds
5:50 PM 53.6 °F 46.4 °F 77% 29.62 in 6.2 mi WSW 15.0 mph - N/A Rain Light Rain Showers
6:20 PM 53.6 °F 46.4 °F 77% 29.65 in 5.6 mi WSW 15.0 mph 26.5 mph N/A   Mostly Cloudy
6:50 PM 51.8 °F 44.6 °F 76% 29.65 in 6.2 mi SW 12.7 mph - N/A   Mostly Cloudy
7:20 PM 53.6 °F 44.6 °F 72% 29.65 in 5.6 mi WSW 18.4 mph - N/A   Mostly Cloudy
7:50 PM 50.0 °F 46.4 °F 87% 29.68 in 5.0 mi WSW 12.7 mph - N/A   Scattered Clouds
8:20 PM 50.0 °F 44.6 °F 82% 29.68 in 5.6 mi SW 13.8 mph - N/A Rain Light Rain
8:50 PM 50.0 °F 44.6 °F 82% 29.68 in 6.2 mi SW 11.5 mph - N/A   Partly Cloudy
9:20 PM 50.0 °F 44.6 °F 82% 29.68 in 5.0 mi WSW 12.7 mph - N/A Rain Light Rain
9:50 PM 50.0 °F 44.6 °F 82% 29.71 in 6.2 mi SW 13.8 mph - N/A   Scattered Clouds
10:20 PM 50.0 °F 44.6 °F 82% 29.71 in 6.2 mi SW 12.7 mph - N/A   Scattered Clouds
10:50 PM 50.0 °F 44.6 °F 82% 29.71 in 6.2 mi SW 13.8 mph - N/A   Mostly Cloudy
11:20 PM 50.0 °F 44.6 °F 82% 29.71 in 6.2 mi WSW 15.0 mph - N/A   Mostly Cloudy
11:50 PM 50.0 °F 44.6 °F 82% 29.74 in 6.2 mi SW 16.1 mph - N/A   Scattered Clouds